Location: Unspecified
(49.2170°N, 0.0000°E)
Time: 23:54:40
(UTC+00:00)

A-11 Canister half - Pass Details

Date: 19 June 2019
Orbit: 1526 x 1683 km, 47.3° (Epoch: 19 July)

Event Time Altitude Azimuth Distance (km) Brightness Sun altitude
Rises 05:52:37 0° 234° (SW) 4,724 11.0 16.2°
Reaches altitude 10° 05:55:44 10° 230° (SW) 3,726 10.5 16.6°
Maximum altitude 06:04:51 59° 155° (SSE) 1,729 9.7 18.1°
Drops below altitude 10° 06:13:54 10° 79° (ENE) 3,698 13.5 19.5°
Sets 06:16:59 0° 76° (ENE) 4,688 13.2 20.0°
